Hourly Weather Kragujevac

Today, 20 October, Tuesday

Time Temperature Precipitation Wind Pressure Humidity
00:00 +5°C° 0 mm 0 mps 747 mmHg 79%
01:00 +5°C° 0 mm 0 mps 747 mmHg 81%
02:00 +5°C° 0 mm 0 mps 746 mmHg 82%
03:00 +5°C° 0 mm 1 mps 746 mmHg 83%
04:00 +5°C° 0 mm 1 mps 746 mmHg 84%
05:00 +6°C° 0 mm 1 mps 746 mmHg 83%
06:00 +6°C° 0 mm 1 mps 747 mmHg 81%
07:00 +6°C° 0 mm 0 mps 747 mmHg 79%
08:00 +9°C° 0 mm 1 mps 747 mmHg 71%
09:00 +11°C° 0 mm 1 mps 747 mmHg 63%
10:00 +13°C° 0 mm 1 mps 747 mmHg 54%
11:00 +14°C° 0 mm 2 mps 747 mmHg 51%
12:00 +15°C° 0 mm 2 mps 747 mmHg 47%
13:00 +16°C° 0 mm 2 mps 747 mmHg 43%
14:00 +15°C° 0 mm 2 mps 746 mmHg 47%
15:00 +15°C° 0 mm 2 mps 746 mmHg 51%
16:00 +14°C° 0 mm 2 mps 746 mmHg 55%
17:00 +12°C° 0 mm 1 mps 746 mmHg 60%
18:00 +11°C° 0 mm 1 mps 746 mmHg 65%
19:00 +9°C° 0 mm 1 mps 747 mmHg 70%
20:00 +9°C° 0 mm 1 mps 747 mmHg 71%
21:00 +8°C° 0 mm 1 mps 747 mmHg 73%
22:00 +8°C° 0 mm 1 mps 747 mmHg 74%
23:00 +8°C° 0 mm 1 mps 747 mmHg 75%

Tomorrow, 21 October, Wednesday

Time Temperature Precipitation Wind Pressure Humidity
00:00 +7°C° 0 mm 1 mps 747 mmHg 77%
01:00 +6°C° 0 mm 2 mps 747 mmHg 78%
02:00 +6°C° 0 mm 2 mps 747 mmHg 79%
03:00 +5°C° 0 mm 2 mps 747 mmHg 80%
04:00 +5°C° 0 mm 2 mps 747 mmHg 80%
05:00 +6°C° 0 mm 2 mps 747 mmHg 79%
06:00 +6°C° 0 mm 2 mps 746 mmHg 77%
07:00 +6°C° 0 mm 2 mps 746 mmHg 76%
08:00 +9°C° 0 mm 2 mps 746 mmHg 68%
09:00 +12°C° 0 mm 2 mps 746 mmHg 59%
10:00 +13°C° 0 mm 3 mps 746 mmHg 51%
11:00 +16°C° 0 mm 3 mps 746 mmHg 48%
12:00 +17°C° 0 mm 3 mps 745 mmHg 44%
13:00 +18°C° 0 mm 3 mps 745 mmHg 41%
14:00 +17°C° 0 mm 2 mps 745 mmHg 46%
15:00 +16°C° 0 mm 2 mps 744 mmHg 51%
16:00 +15°C° 0 mm 2 mps 744 mmHg 55%
17:00 +14°C° 0 mm 1 mps 744 mmHg 58%
18:00 +13°C° 0 mm 1 mps 745 mmHg 61%
19:00 +11°C° 0 mm 1 mps 745 mmHg 64%
20:00 +11°C° 0 mm 1 mps 745 mmHg 64%
21:00 +10°C° 0 mm 1 mps 745 mmHg 65%
22:00 +9°C° 0 mm 2 mps 745 mmHg 66%
23:00 +9°C° 0 mm 2 mps 745 mmHg 66%

Day after tomorrow, 22 October, Thursday

Time Temperature Precipitation Wind Pressure Humidity
00:00 +8°C° 0 mm 2 mps 745 mmHg 67%
01:00 +8°C° 0 mm 2 mps 745 mmHg 67%
02:00 +8°C° 0 mm 2 mps 745 mmHg 66%
03:00 +8°C° 0 mm 2 mps 745 mmHg 66%
04:00 +7°C° 0 mm 2 mps 745 mmHg 66%
05:00 +8°C° 0 mm 2 mps 745 mmHg 65%
06:00 +8°C° 0 mm 2 mps 745 mmHg 64%
07:00 +8°C° 0 mm 2 mps 745 mmHg 63%
08:00 +12°C° 0 mm 2 mps 745 mmHg 56%
09:00 +15°C° 0 mm 1 mps 745 mmHg 48%
10:00 +18°C° 0 mm 1 mps 745 mmHg 41%
11:00 +20°C° 0 mm 1 mps 744 mmHg 38%
12:00 +21°C° 0 mm 1 mps 744 mmHg 35%
13:00 +23°C° 0 mm 1 mps 744 mmHg 33%
14:00 +21°C° 0 mm 1 mps 743 mmHg 38%
15:00 +20°C° 0 mm 1 mps 743 mmHg 43%
16:00 +19°C° 0 mm 1 mps 743 mmHg 48%
17:00 +16°C° 0 mm 1 mps 743 mmHg 50%
18:00 +15°C° 0 mm 1 mps 743 mmHg 53%
19:00 +13°C° 0 mm 1 mps 743 mmHg 55%
20:00 +13°C° 0 mm 1 mps 743 mmHg 56%
21:00 +12°C° 0 mm 1 mps 743 mmHg 57%
22:00 +12°C° 0 mm 1 mps 743 mmHg 58%
23:00 +12°C° 0 mm 1 mps 743 mmHg 59%

23 October, Friday

Time Temperature Precipitation Wind Pressure Humidity
00:00 +11°C° 0 mm 1 mps 743 mmHg 60%
01:00 +11°C° 0 mm 1 mps 742 mmHg 61%
02:00 +11°C° 0 mm 1 mps 742 mmHg 60%
03:00 +10°C° 0 mm 1 mps 742 mmHg 60%
04:00 +10°C° 0 mm 1 mps 742 mmHg 60%
05:00 +10°C° 0 mm 1 mps 742 mmHg 59%
06:00 +10°C° 0 mm 1 mps 742 mmHg 57%
07:00 +10°C° 0 mm 1 mps 742 mmHg 56%
08:00 +13°C° 0 mm 1 mps 742 mmHg 49%
09:00 +16°C° 0 mm 1 mps 742 mmHg 43%
10:00 +19°C° 0 mm 1 mps 742 mmHg 36%
11:00 +21°C° 0 mm 1 mps 742 mmHg 34%
12:00 +22°C° 0 mm 1 mps 741 mmHg 33%
13:00 +23°C° 0 mm 1 mps 741 mmHg 31%
14:00 +22°C° 0 mm 1 mps 741 mmHg 36%
15:00 +20°C° 0 mm 1 mps 741 mmHg 42%
16:00 +19°C° 0 mm 1 mps 741 mmHg 47%
17:00 +16°C° 0 mm 1 mps 741 mmHg 51%
18:00 +15°C° 0 mm 1 mps 741 mmHg 54%
19:00 +13°C° 0 mm 0 mps 742 mmHg 57%
20:00 +13°C° 0 mm 1 mps 742 mmHg 57%
21:00 +13°C° 0 mm 1 mps 742 mmHg 57%
22:00 +13°C° 0 mm 1 mps 741 mmHg 58%
23:00 +13°C° 0 mm 1 mps 741 mmHg 59%

24 October, Saturday

Time Temperature Precipitation Wind Pressure Humidity
00:00 +12°C° 0 mm 0 mps 741 mmHg 59%
01:00 +12°C° 0 mm 0 mps 741 mmHg 60%
02:00 +12°C° 0 mm 1 mps 741 mmHg 61%
03:00 +12°C° 0 mm 1 mps 741 mmHg 62%
04:00 +12°C° 0 mm 1 mps 741 mmHg 63%
05:00 +12°C° 0 mm 1 mps 741 mmHg 64%
06:00 +12°C° 0 mm 0 mps 741 mmHg 65%
07:00 +12°C° 0 mm 0 mps 741 mmHg 66%
08:00 +14°C° 0 mm 1 mps 741 mmHg 66%
09:00 +15°C° 0 mm 1 mps 742 mmHg 66%
10:00 +17°C° 0 mm 2 mps 742 mmHg 65%
11:00 +17°C° 0 mm 2 mps 742 mmHg 69%
12:00 +16°C° 0 mm 3 mps 742 mmHg 72%
13:00 +16°C° 0 mm 3 mps 742 mmHg 76%
14:00 +16°C° 0.1 mm 3 mps 742 mmHg 80%
15:00 +15°C° 0.1 mm 2 mps 743 mmHg 85%
16:00 +14°C° 0.1 mm 2 mps 743 mmHg 89%
17:00 +14°C° 0 mm 2 mps 743 mmHg 90%
18:00 +14°C° 0 mm 2 mps 743 mmHg 91%
19:00 +13°C° 0 mm 2 mps 744 mmHg 92%
20:00 +13°C° 0 mm 1 mps 744 mmHg 93%
21:00 +12°C° 0 mm 1 mps 744 mmHg 94%
22:00 +11°C° 0 mm 1 mps 744 mmHg 94%
23:00 +11°C° 0 mm 1 mps 744 mmHg 94%

25 October, Sunday

Time Temperature Precipitation Wind Pressure Humidity
00:00 +10°C° 0 mm 1 mps 744 mmHg 94%
01:00 +10°C° 0 mm 1 mps 744 mmHg 94%
02:00 +10°C° 0 mm 1 mps 744 mmHg 94%
03:00 +9°C° 0 mm 1 mps 744 mmHg 94%
04:00 +9°C° 0 mm 1 mps 744 mmHg 93%
05:00 +9°C° 0 mm 1 mps 744 mmHg 92%
06:00 +8°C° 0 mm 0 mps 744 mmHg 91%
07:00 +9°C° 0 mm 0 mps 744 mmHg 89%
08:00 +11°C° 0 mm 1 mps 744 mmHg 80%
09:00 +13°C° 0 mm 1 mps 743 mmHg 71%
10:00 +15°C° 0 mm 1 mps 743 mmHg 61%
11:00 +16°C° 0 mm 1 mps 743 mmHg 57%
12:00 +16°C° 0 mm 2 mps 742 mmHg 53%
13:00 +17°C° 0 mm 2 mps 742 mmHg 49%
14:00 +16°C° 0 mm 2 mps 741 mmHg 53%
15:00 +15°C° 0 mm 2 mps 741 mmHg 56%
16:00 +14°C° 0 mm 2 mps 741 mmHg 60%
17:00 +13°C° 0 mm 1 mps 741 mmHg 64%
18:00 +12°C° 0 mm 1 mps 741 mmHg 68%
19:00 +10°C° 0 mm 0 mps 741 mmHg 72%
20:00 +10°C° 0 mm 0 mps 741 mmHg 73%
21:00 +9°C° 0 mm 0 mps 741 mmHg 74%
22:00 +9°C° 0 mm 0 mps 741 mmHg 75%
23:00 +9°C° 0 mm 0 mps 741 mmHg 76%

26 October, Monday

Time Temperature Precipitation Wind Pressure Humidity
00:00 +9°C° 0 mm 0 mps 741 mmHg 77%
01:00 +9°C° 0 mm 0 mps 740 mmHg 79%
02:00 +10°C° 0 mm 1 mps 740 mmHg 80%
03:00 +10°C° 0 mm 1 mps 740 mmHg 81%
04:00 +10°C° 0 mm 1 mps 739 mmHg 82%
05:00 +11°C° 0 mm 1 mps 739 mmHg 82%
06:00 +10°C° 0 mm 2 mps 739 mmHg 81%
07:00 +10°C° 0 mm 2 mps 739 mmHg 81%
08:00 +12°C° 0 mm 2 mps 739 mmHg 79%
09:00 +12°C° 0 mm 3 mps 739 mmHg 76%
10:00 +13°C° 0 mm 3 mps 739 mmHg 74%
11:00 +14°C° 0 mm 4 mps 739 mmHg 72%
12:00 +14°C° 0 mm 4 mps 739 mmHg 70%
13:00 +15°C° 0 mm 5 mps 739 mmHg 69%
14:00 +14°C° 0 mm 4 mps 739 mmHg 71%
15:00 +13°C° 0 mm 4 mps 738 mmHg 74%
16:00 +13°C° 0 mm 3 mps 738 mmHg 77%
17:00 +12°C° 0 mm 3 mps 739 mmHg 79%
18:00 +12°C° 0 mm 3 mps 739 mmHg 80%
19:00 +13°C° 0 mm 2 mps 739 mmHg 81%
20:00 +12°C° 0 mm 2 mps 739 mmHg 81%
21:00 +12°C° 0 mm 2 mps 739 mmHg 81%
22:00 +12°C° 0 mm 2 mps 740 mmHg 81%
23:00 +12°C° 0 mm 2 mps 740 mmHg 80%
Show more